Time,TemperatureF,DewpointF,PressureIn,WindDirection,WindDirectionDegrees,WindSpeedMPH,WindSpeedGustMPH,Humidity,HourlyPrecipIn,Conditions,Clouds,dailyrainin,SoftwareType,DateUTC
2013-06-07 00:23:00,65.0,-99.9,29.94,North,-999,-999.0,9.0,-999,-99.99,,,-99.99,,2013-06-07 04:23:00,
2013-06-07 00:33:00,65.0,-99.9,29.94,North,-999,-999.0,9.0,-999,-99.99,,,-99.99,,2013-06-07 04:33:00,
2013-06-07 00:42:00,65.0,-99.9,29.94,North,-999,-999.0,9.0,-999,-99.99,,,-99.99,,2013-06-07 04:42:00,
2013-06-07 00:52:00,65.0,-99.9,29.92,SW,226,3.0,9.0,-999,-99.99,,,-99.99,,2013-06-07 04:52:00,
2013-06-07 01:23:00,65.0,-99.9,29.92,SW,226,3.0,9.0,-999,-99.99,,,-99.99,,2013-06-07 05:23:00,
2013-06-07 01:32:00,65.0,-99.9,29.92,SW,226,3.0,9.0,-999,-99.99,,,-99.99,,2013-06-07 05:32:00,
2013-06-07 01:43:00,65.0,-99.9,29.92,SW,226,3.0,9.0,-999,-99.99,,,-99.99,,2013-06-07 05:43:00,
2013-06-07 01:52:00,66.0,-99.9,29.89,South,169,-999.0,12.0,-999,-99.99,,,-99.99,,2013-06-07 05:52:00,
2013-06-07 02:23:00,66.0,-99.9,29.89,South,169,-999.0,12.0,-999,-99.99,,,-99.99,,2013-06-07 06:23:00,
2013-06-07 02:32:00,66.0,-99.9,29.89,South,169,-999.0,12.0,-999,-99.99,,,-99.99,,2013-06-07 06:32:00,
2013-06-07 02:43:00,66.0,-99.9,29.89,South,169,-999.0,12.0,-999,-99.99,,,-99.99,,2013-06-07 06:43:00,
2013-06-07 02:52:00,67.0,-99.9,29.87,North,-999,-999.0,14.0,-999,-99.99,,,-99.99,,2013-06-07 06:52:00,
2013-06-07 03:22:00,67.0,-99.9,29.87,North,-999,-999.0,14.0,-999,-99.99,,,-99.99,,2013-06-07 07:22:00,
2013-06-07 03:32:00,67.0,-99.9,29.87,North,-999,-999.0,14.0,-999,-99.99,,,-99.99,,2013-06-07 07:32:00,
2013-06-07 03:42:00,67.0,-99.9,29.87,North,-999,-999.0,14.0,-999,-99.99,,,-99.99,,2013-06-07 07:42:00,
2013-06-07 03:52:00,67.0,-99.9,29.84,North,-999,-999.0,15.0,-999,-99.99,,,-99.99,,2013-06-07 07:52:00,
2013-06-07 04:22:00,67.0,-99.9,29.84,North,-999,-999.0,15.0,-999,-99.99,,,-99.99,,2013-06-07 08:22:00,
2013-06-07 04:32:00,67.0,-99.9,29.84,North,-999,-999.0,15.0,-999,-99.99,,,-99.99,,2013-06-07 08:32:00,
2013-06-07 04:43:00,67.0,-99.9,29.84,North,-999,-999.0,15.0,-999,-99.99,,,-99.99,,2013-06-07 08:43:00,
2013-06-07 04:52:00,67.0,-99.9,29.83,North,-999,-999.0,13.0,-999,-99.99,,,-99.99,,2013-06-07 08:52:00,
2013-06-07 05:33:00,67.0,-99.9,29.83,North,-999,-999.0,13.0,-999,-99.99,,,-99.99,,2013-06-07 09:33:00,
2013-06-07 05:43:00,67.0,-99.9,29.83,North,-999,-999.0,13.0,-999,-99.99,,,-99.99,,2013-06-07 09:43:00,
2013-06-07 05:52:00,67.0,-99.9,29.83,North,-999,-999.0,12.0,-999,-99.99,,,-99.99,,2013-06-07 09:52:00,
2013-06-07 06:23:00,67.0,-99.9,29.83,North,-999,-999.0,12.0,-999,-99.99,,,-99.99,,2013-06-07 10:23:00,
2013-06-07 06:33:00,67.0,-99.9,29.83,North,-999,-999.0,12.0,-999,-99.99,,,-99.99,,2013-06-07 10:33:00,
2013-06-07 06:43:00,67.0,-99.9,29.83,North,-999,-999.0,12.0,-999,-99.99,,,-99.99,,2013-06-07 10:43:00,
2013-06-07 06:52:00,66.0,-99.9,29.83,North,-999,-999.0,-999.0,-999,-99.99,,,-99.99,,2013-06-07 10:52:00,
2013-06-07 07:22:00,66.0,-99.9,29.83,North,-999,-999.0,-999.0,-999,-99.99,,,-99.99,,2013-06-07 11:22:00,
2013-06-07 07:32:00,66.0,-99.9,29.83,North,-999,-999.0,-999.0,-999,-99.99,,,-99.99,,2013-06-07 11:32:00,
2013-06-07 07:42:00,66.0,-99.9,29.83,North,-999,-999.0,-999.0,-999,-99.99,,,-99.99,,2013-06-07 11:42:00,
2013-06-07 07:52:00,67.0,-99.9,29.82,South,183,-999.0,-999.0,-999,-99.99,,,-99.99,,2013-06-07 11:52:00,
2013-06-07 08:22:00,67.0,-99.9,29.82,South,183,-999.0,-999.0,-999,-99.99,,,-99.99,,2013-06-07 12:22:00,
2013-06-07 08:33:00,67.0,-99.9,29.82,South,183,-999.0,-999.0,-999,-99.99,,,-99.99,,2013-06-07 12:33:00,
2013-06-07 08:42:00,67.0,-99.9,29.82,South,183,-999.0,-999.0,-999,-99.99,,,-99.99,,2013-06-07 12:42:00,
2013-06-07 08:52:00,68.0,-99.9,29.82,North,-999,-999.0,5.0,-999,-99.99,,,-99.99,,2013-06-07 12:52:00,
2013-06-07 09:33:00,68.0,-99.9,29.82,North,-999,-999.0,5.0,-999,-99.99,,,-99.99,,2013-06-07 13:33:00,
2013-06-07 09:43:00,68.0,-99.9,29.82,North,-999,-999.0,5.0,-999,-99.99,,,-99.99,,2013-06-07 13:43:00,
2013-06-07 09:52:00,69.0,-99.9,29.82,North,-999,-999.0,10.0,-999,-99.99,,,-99.99,,2013-06-07 13:52:00,
2013-06-07 10:23:00,69.0,-99.9,29.82,North,-999,-999.0,10.0,-999,-99.99,,,-99.99,,2013-06-07 14:23:00,
2013-06-07 10:33:00,69.0,-99.9,29.82,North,-999,-999.0,10.0,-999,-99.99,,,-99.99,,2013-06-07 14:33:00,
2013-06-07 10:42:00,69.0,-99.9,29.82,North,-999,-999.0,10.0,-999,-99.99,,,-99.99,,2013-06-07 14:42:00,
2013-06-07 10:52:00,69.0,-99.9,29.82,North,-999,-999.0,10.0,-999,-99.99,,,-99.99,,2013-06-07 14:52:00,
2013-06-07 11:33:00,69.0,-99.9,29.82,North,-999,-999.0,10.0,-999,-99.99,,,-99.99,,2013-06-07 15:33:00,
2013-06-07 11:43:00,69.0,-99.9,29.82,North,-999,-999.0,10.0,-999,-99.99,,,-99.99,,2013-06-07 15:43:00,
2013-06-07 11:52:00,69.0,-99.9,29.81,NNE,21,-999.0,10.0,-999,-99.99,,,-99.99,,2013-06-07 15:52:00,
2013-06-07 12:22:00,69.0,-99.9,29.81,NNE,21,-999.0,10.0,-999,-99.99,,,-99.99,,2013-06-07 16:22:00,
2013-06-07 12:33:00,69.0,-99.9,29.81,NNE,21,-999.0,10.0,-999,-99.99,,,-99.99,,2013-06-07 16:33:00,
2013-06-07 12:43:00,69.0,-99.9,29.81,NNE,21,-999.0,10.0,-999,-99.99,,,-99.99,,2013-06-07 16:43:00,
2013-06-07 12:52:00,69.0,-99.9,29.77,North,-999,4.0,10.0,-999,-99.99,,,-99.99,,2013-06-07 16:52:00,
2013-06-07 13:32:00,69.0,-99.9,29.77,North,-999,4.0,10.0,-999,-99.99,,,-99.99,,2013-06-07 17:32:00,
2013-06-07 13:43:00,69.0,-99.9,29.77,North,-999,4.0,10.0,-999,-99.99,,,-99.99,,2013-06-07 17:43:00,
2013-06-07 14:29:00,68.0,-99.9,29.71,SE,132,-999.0,10.0,-999,-99.99,,,-99.99,,2013-06-07 18:29:00,
2013-06-07 14:38:00,68.0,-99.9,29.71,SE,132,-999.0,10.0,-999,-99.99,,,-99.99,,2013-06-07 18:38:00,
2013-06-07 14:52:00,68.0,-99.9,29.68,North,-999,-999.0,9.0,-999,-99.99,,,-99.99,,2013-06-07 18:52:00,
2013-06-07 15:30:00,68.0,-99.9,29.68,North,-999,-999.0,9.0,-999,-99.99,,,-99.99,,2013-06-07 19:30:00,
2013-06-07 15:41:00,68.0,-99.9,29.68,North,-999,-999.0,9.0,-999,-99.99,,,-99.99,,2013-06-07 19:41:00,
2013-06-07 15:52:00,69.0,-99.9,29.65,North,-999,-999.0,9.0,-999,-99.99,,,-99.99,,2013-06-07 19:52:00,
2013-06-07 16:28:00,69.0,-99.9,29.65,North,-999,-999.0,9.0,-999,-99.99,,,-99.99,,2013-06-07 20:28:00,
2013-06-07 16:43:00,69.0,-99.9,29.65,North,-999,-999.0,9.0,-999,-99.99,,,-99.99,,2013-06-07 20:43:00,
2013-06-07 16:52:00,71.0,-99.9,29.62,North,-999,13.0,22.0,-999,-99.99,,,-99.99,,2013-06-07 20:52:00,
2013-06-07 17:30:00,71.0,-99.9,29.62,North,-999,13.0,22.0,-999,-99.99,,,-99.99,,2013-06-07 21:30:00,
2013-06-07 17:43:00,71.0,-99.9,29.62,North,-999,13.0,22.0,-999,-99.99,,,-99.99,,2013-06-07 21:43:00,
2013-06-07 18:39:00,71.0,-99.9,29.60,North,-999,-999.0,19.0,-999,-99.99,,,-99.99,,2013-06-07 22:39:00,
2013-06-07 18:49:00,71.0,-99.9,29.60,North,-999,-999.0,19.0,-999,-99.99,,,-99.99,,2013-06-07 22:49:00,
2013-06-07 18:52:00,71.0,-99.9,29.58,North,-999,-999.0,-999.0,-999,-99.99,,,-99.99,,2013-06-07 22:52:00,
2013-06-07 19:33:00,71.0,-99.9,29.58,North,-999,-999.0,-999.0,-999,-99.99,,,-99.99,,2013-06-07 23:33:00,
2013-06-07 19:52:00,72.0,-99.9,29.56,North,-999,-999.0,19.0,-999,-99.99,,,-99.99,,2013-06-07 23:52:00,
2013-06-07 20:32:00,72.0,-99.9,29.56,North,-999,-999.0,19.0,-999,-99.99,,,-99.99,,2013-06-08 00:32:00,
2013-06-07 20:49:00,72.0,-99.9,29.56,North,-999,-999.0,19.0,-999,-99.99,,,-99.99,,2013-06-08 00:49:00,
2013-06-07 20:52:00,71.0,-99.9,29.55,North,-999,17.0,17.0,-999,-99.99,,,-99.99,,2013-06-08 00:52:00,
2013-06-07 21:40:00,71.0,-99.9,29.55,North,-999,17.0,17.0,-999,-99.99,,,-99.99,,2013-06-08 01:40:00,
2013-06-07 21:50:00,71.0,-99.9,29.55,North,-999,17.0,17.0,-999,-99.99,,,-99.99,,2013-06-08 01:50:00,
2013-06-07 21:52:00,71.0,-99.9,29.54,SSW,205,-999.0,13.0,-999,-99.99,,,-99.99,,2013-06-08 01:52:00,
2013-06-07 22:37:00,71.0,-99.9,29.54,SSW,205,-999.0,13.0,-999,-99.99,,,-99.99,,2013-06-08 02:37:00,
2013-06-07 22:49:00,71.0,-99.9,29.54,SSW,205,-999.0,13.0,-999,-99.99,,,-99.99,,2013-06-08 02:49:00,
2013-06-07 22:52:00,70.0,-99.9,29.53,North,-999,-999.0,-999.0,-999,-99.99,,,-99.99,,2013-06-08 02:52:00,
2013-06-07 23:27:00,70.0,-99.9,29.53,North,-999,-999.0,-999.0,-999,-99.99,,,-99.99,,2013-06-08 03:27:00,
2013-06-07 23:40:00,70.0,-99.9,29.53,North,-999,-999.0,-999.0,-999,-99.99,,,-99.99,,2013-06-08 03:40:00,